吉利星座2组02星 (GEESAT-2 02)

导读 | 星芒AI

GEESAT-2 02 是一颗由韩国开发的地球观测卫星,主要用于环境监测和灾害预警。该卫星搭载高分辨率光学传感器,能够提供清晰的地球表面图像,支持农业、林业和城市规划等领域的应用。作为GEESAT系列的一部分,GEESAT-2 02 提升了韩国在遥感技术方面的自主能力,并增强了国家对地观测系统的整体效能。

基本信息
目录编号:
58906
目录名称:
GEESAT 2-02
国际标识:
2024-023B
轨道中心:
EARTH
卫星名称:
吉利星座2组02星
卫星全名:
吉利星座2组02星 (GEESAT-2 02)
卫星状态:
在轨 (已飞行682 天)
发射日期:
2024-02-02 UTC
国别 :
中国 (CN)
星等 :
--
轨道信息
数据来源 国际轨道数据 AOE轨道数据
星历时间 2025-12-14T16:28:04+0800
23小时前
查看轨道信息
2025-12-10T09:00:00+0800
5天前
查看轨道信息
半长轴 6999.409km 6999.469km
偏心率 0.0015078 0.0015081
轨道倾角 49.996° 49.996°
近地点辐角 11.227° 355.726°
升交点赤经 129.801° 149.748°
平近点角 348.900° 18.619°
近地点 610.72km 610.778km
远地点 631.828km 631.89km
周期 97.130分钟 97.131分钟
每日圈数 14.825549 14.825356
详细信息
平衡模式:
三轴稳定
覆盖范围:
全球
运营商:
时空道宇科技有限公司
运营商所在国:
中国
制造商(研发单位):
时空道宇科技有限公司
制造商所在国:
中国
使用方式:
暂无
卫星简介
吉利星座(GeeSAT)也称“吉利未来出行星座”,由吉利旗下时空道宇自主研发,布局硬核科技生态,赋能智慧出行、无人系统、智慧城市等领域,并将全面提升吉利控股旗下极氪、领克、远程新能源商用车等品牌的用户智能出行体验。通过“吉利未来出行星座”建设,吉利控股集团将构建天地一体化高精时空信息系统。该卫星仍在工作。
2D轨道图
3D轨道图
轨道高度分析图
轨道倾角分析图
轨道综合分析图
查看轨道综合分析图